Torna al catalogo

COSMOS 1109 DEB

LostHEO
NORAD 48091·DEBRIS·🇷🇺 Russia

Lanciato Jun 27, 1979 da Plesetsk Cosmodrome

Loading…

Prossimi Passaggi (prossime 24 ore)

TLE

ObsoletoSource: Space-Track

Epoca: Aug 7, 2021, 02:17 UTC

1 48091U 79058Y   21219.09525550 -.00000247  00000-0  21677+0 0  9993
2 48091  67.3459 264.4670 6777052 331.3515   6.4211  2.06701328 47455

Traccia COSMOS 1109 DEB in tempo reale con AllMySat

Download on the App Store